File timestamp: Wed Sep  7 00:00:00 2016, Internal temp: 19.7601318359375
1473206401, 0.137541458010674, -0.130717769265175, 0.162280932068825, 32222, 31449, 23409, -128.54035949707
1473206402, 0.131240114569664, -0.130427986383438, 0.162514418363571, 32215, 31458, 23411, NaN
1473206403, 0.124424837529659, -0.129862651228905, 0.163108915090561, 32212, 31449, 23410, NaN
1473206404, 0.116058468818665, -0.130401819944382, 0.163428962230682, 32216, 31452, 23391, NaN
1473206405, 0.107518643140793, -0.130994528532028, 0.164005666971207, 32211, 31458, 23405, NaN
1473206406, 0.0997084304690361, -0.131187900900841, 0.164393037557602, 32236, 31460, 23395, NaN
1473206407, 0.0909288376569748, -0.131271034479141, 0.164584428071976, 32225, 31459, 23407, NaN
1473206408.01, 0.0803394168615341, -0.131290569901466, 0.164762869477272, 32228, 31450, 23403, NaN
1473206409.01, 0.0708218887448311, -0.131616398692131, 0.164640516042709, 32219, 31463, 23412, NaN
1473206409.01, 0.0587705858051777, -0.130721256136894, 0.164552837610245, 32217, 31451, 23405, NaN
1473206410.018, 0.0477044433355331, -0.131273031234741, 0.163502991199493, 32208, 31458, 23419, NaN
1473206411.018, 0.0351626835763454, -0.13130359351635, 0.163733631372452, 32218, 31447, 23395, NaN
1473206412.018, 0.0235294457525015, -0.131642252206802, 0.163831129670143, 32206, 31476, 23403, NaN
1473206413.018, 0.0144737018272281, -0.131531909108162, 0.163419678807259, 32189, 31467, 23411, NaN
1473206414.018, 0.00588221987709403, -0.131454065442085, 0.163484781980515, 32207, 31466, 23410, NaN
1473206415.018, -0.00216624862514436, -0.13114170730114, 0.163837015628815, 32208, 31466, 23401, NaN
1473206416.018, -0.00879636406898499, -0.130604892969131, 0.164280027151108, 32213, 31456, 23414, NaN
1473206417.018, -0.0153505895286798, -0.131227999925613, 0.16366782784462, 32218, 31455, 23405, NaN
1473206418.018, -0.0197517238557339, -0.130902200937271, 0.163294762372971, 32199, 31464, 23417, NaN
1473206419.018, -0.0234634410589933, -0.130927130579948, 0.164119735360146, 32214, 31461, 23408, NaN
1473206420.026, -0.0271357018500566, -0.131470888853073, 0.164432570338249, 32211, 31453, 23400, NaN
1473206421.026, -0.0287396833300591, -0.130742967128754, 0.164948761463165, 32214, 31461, 23403, NaN
1473206422.026, -0.0317513346672058, -0.130696877837181, 0.164485290646553, 32223, 31451, 23401, NaN
1473206423.026, -0.0339365974068642, -0.130619645118713, 0.165057942271233, 32223, 31457, 23421, NaN
1473206423.026, -0.0366380363702774, -0.130714550614357, 0.163925096392632, 32211, 31451, 23403, NaN
1473206424.032, -0.0386193320155144, -0.131459131836891, 0.163452550768852, 32214, 31449, 23407, NaN
1473206425.032, -0.0393468998372555, -0.130983293056488, 0.163251712918282, 32223, 31464, 23394, NaN
1473206426.032, -0.0411474108695984, -0.130972117185593, 0.162896856665611, 32207, 31449, 23394, NaN
1473206427.032, -0.0400279052555561, -0.131212577223778, 0.162948474287987, 32205, 31473, 23413, NaN
1473206428.032, -0.0404652170836926, -0.130940780043602, 0.163636431097984, 32216, 31456, 23404, NaN
1473206429.032, -0.0400820039212704, -0.131661251187325, 0.163625240325928, 32200, 31456, 23415, NaN
1473206430.042, -0.038740660995245, -0.130680099129677, 0.163693636655807, 32220, 31460, 23402, NaN
1473206431.042, -0.0367447771131992, -0.130555599927902, 0.163518831133842, 32218, 31453, 23402, NaN
1473206432.042, -0.0335810109972954, -0.129868537187576, 0.163728341460228, 32201, 31460, 23411, NaN
1473206432.042, -0.0329790152609348, -0.130833238363266, 0.16413439810276, 32213, 31458, 23405, NaN
1473206433.048, -0.0299728102982044, -0.129918679594994, 0.164303705096245, 32226, 31456, 23393, NaN
1473206434.048, -0.0272211767733097, -0.129406556487083, 0.164661794900894, 32239, 31458, 23414, NaN
1473206435.048, -0.0259649530053139, -0.128200456500053, 0.164211466908455, 32223, 31469, 23401, NaN
1473206436.048, -0.023105027154088, -0.127915069460869, 0.16309067606926, 32219, 31463, 23400, NaN
1473206436.048, -0.0208773389458656, -0.127363353967667, 0.163497418165207, 32209, 31481, 23411, NaN
1473206437.05, -0.0184151325374842, -0.128029450774193, 0.163264244794846, 32206, 31461, 23404, NaN
1473206438.05, -0.0150328734889627, -0.127825438976288, 0.163910359144211, 32204, 31461, 23413, NaN
1473206439.05, -0.0130923390388489, -0.127691030502319, 0.16448700428009, 32214, 31456, 23414, NaN
1473206440.06, -0.0112149305641651, -0.126841902732849, 0.164684444665909, 32219, 31467, 23389, NaN
1473206441.06, -0.00969561655074358, -0.127258688211441, 0.165061235427856, 32207, 31468, 23405, NaN
1473206442.06, -0.00774385686963797, -0.127679482102394, 0.164610609412193, 32214, 31457, 23398, NaN
1473206443.06, -0.00543962465599179, -0.127055987715721, 0.164976671338081, 32201, 31459, 23412, NaN
1473206444.06, -0.00681111169978976, -0.127634614706039, 0.164908036589622, 32216, 31465, 23414, NaN
1473206445.06, -0.00772250117734075, -0.126571327447891, 0.164621204137802, 32231, 31469, 23407, NaN
1473206446.06, -0.00918756984174252, -0.126749441027641, 0.164948433637619, 32218, 31444, 23404, NaN
1473206447.06, -0.00831129401922226, -0.127535328269005, 0.164895728230476, 32216, 31469, 23412, NaN
1473206448.06, -0.00830921530723572, -0.127950116991997, 0.165613606572151, 32211, 31458, 23403, NaN
1473206449.06, -0.00647560320794582, -0.12779313325882, 0.165109857916832, 32222, 31461, 23401, NaN
1473206450.06, -0.00498651480302215, -0.127804473042488, 0.16501772403717, 32201, 31476, 23407, NaN
1473206451.06, -0.0044005224481225, -0.128035143017769, 0.166300281882286, 32225, 31458, 23409, NaN
1473206452.07, -0.00455109775066376, -0.127986237406731, 0.165387108922005, 32207, 31464, 23406, NaN
1473206453.07, -0.00240687839686871, -0.127755284309387, 0.165790572762489, 32212, 31460, 23402, NaN
1473206454.07, -0.000104076643765438, -0.127137362957001, 0.165509209036827, 32212, 31459, 23404, NaN
1473206455.07, 0.00320944446139038, -0.127893924713135, 0.166166722774506, 32219, 31473, 23402, NaN
1473206456.07, 0.00659397337585688, -0.128387749195099, 0.16571369767189, 32193, 31459, 23421, NaN
1473206457.07, 0.0116014359518886, -0.129273802042007, 0.165984958410263, 32231, 31460, 23405, -127.746185302734
1473206458.07, 0.0143766719847918, -0.129856944084167, 0.165796026587486, 32210, 31470, 23399, NaN
1473206459.07, 0.0175598431378603, -0.129926741123199, 0.165620341897011, 32210, 31460, 23426, NaN
1473206460.07, 0.0193661730736494, -0.129490077495575, 0.165543243288994, 32220, 31467, 23403, NaN
1473206461.07, 0.0228118319064379, -0.129398971796036, 0.165418669581413, 32209, 31462, 23404, NaN
1473206462.072, 0.0268723629415035, -0.128604993224144, 0.165711835026741, 32208, 31466, 23396, NaN
1473206463.068, 0.028842793777585, -0.127691060304642, 0.165298029780388, 32228, 31456, 23414, NaN
1473206464.078, 0.0294380653649569, -0.127781599760056, 0.164583429694176, 32216, 31460, 23396, NaN
1473206464.078, 0.0298221167176962, -0.12730947136879, 0.164444088935852, 32217, 31449, 23404, NaN
1473206465.086, 0.0277919415384531, -0.127171322703362, 0.163998737931252, 32201, 31457, 23416, NaN
1473206466.086, 0.0252921842038631, -0.125933989882469, 0.164657652378082, 32216, 31462, 23414, NaN
1473206467.086, 0.0219863150268793, -0.125817745923996, 0.164136826992035, 32211, 31464, 23416, NaN
1473206468.086, 0.0181738194078207, -0.125409349799156, 0.164002493023872, 32208, 31460, 23418, NaN
1473206469.086, 0.0132129965350032, -0.125129759311676, 0.163857027888298, 32217, 31473, 23401, NaN
1473206470.086, 0.00914719142019749, -0.124686039984226, 0.164219185709953, 32211, 31469, 23406, NaN
1473206471.086, 0.00483545428141952, -0.124331571161747, 0.164547607302666, 32230, 31470, 23409, NaN
1473206472.086, -0.00161255709826946, -0.124308802187443, 0.164419949054718, 32215, 31470, 23391, NaN
1473206473.086, -0.00632791128009558, -0.124386392533779, 0.164154589176178, 32230, 31459, 23399, NaN
1473206474.086, -0.0102760558947921, -0.125324338674545, 0.163721323013306, 32208, 31466, 23397, NaN
1473206475.096, -0.0113619547337294, -0.124895453453064, 0.164458006620407, 32224, 31464, 23394, NaN
1473206476.096, -0.0129429968073964, -0.125039294362068, 0.165152326226234, 32204, 31470, 23403, NaN
1473206477.096, -0.0133095076307654, -0.125400006771088, 0.165657952427864, 32215, 31458, 23410, NaN
1473206478.096, -0.0140590593218803, -0.125240832567215, 0.166023701429367, 32218, 31444, 23400, NaN
1473206478.096, -0.0145291769877076, -0.12429903447628, 0.1667769998312, 32210, 31460, 23410, NaN
1473206479.102, -0.0150887714698911, -0.124609112739563, 0.16640767455101, 32214, 31454, 23408, NaN
1473206480.102, -0.0135308532044291, -0.12540939450264, 0.166967138648033, 32214, 31457, 23411, NaN
1473206481.102, -0.0137875033542514, -0.125902876257896, 0.166643917560577, 32212, 31453, 23403, NaN
1473206482.102, -0.0135059440508485, -0.125235006213188, 0.166122585535049, 32217, 31457, 23410, NaN
1473206483.102, -0.0145392408594489, -0.1257563829422, 0.166274890303612, 32209, 31470, 23398, NaN
1473206484.102, -0.0125697636976838, -0.125257715582848, 0.166201487183571, 32218, 31444, 23408, NaN
1473206485.102, -0.0115763349458575, -0.125715687870979, 0.165887475013733, 32198, 31467, 23407, NaN
1473206486.112, -0.0076232454739511, -0.125669375061989, 0.165598303079605, 32221, 31452, 23407, NaN
1473206487.112, -0.00256355782039464, -0.125132769346237, 0.164581567049026, 32233, 31468, 23410, NaN
1473206487.112, -0.0010276815155521, -0.124158754944801, 0.165078043937683, 32210, 31458, 23409, NaN
1473206488.118, 0.00191135343629867, -0.124839872121811, 0.164342641830444, 32211, 31454, 23405, NaN
1473206489.118, 0.00274915201589465, -0.124781541526318, 0.165104612708092, 32196, 31475, 23415, NaN
1473206490.118, 0.00416420539841056, -0.12467722594738, 0.164734542369843, 32234, 31457, 23388, NaN
1473206491.118, 0.00729210814461112, -0.124568141996861, 0.164720192551613, 32227, 31449, 23416, NaN
1473206491.118, 0.00634397007524967, -0.124781630933285, 0.163920506834984, 32211, 31454, 23417, NaN
1473206492.12, 0.00636350410059094, -0.124955199658871, 0.163605988025665, 32213, 31444, 23419, NaN
1473206493.12, 0.00731551507487893, -0.12520657479763, 0.16389174759388, 32206, 31452, 23403, NaN
1473206494.12, 0.00724090496078134, -0.12564879655838, 0.163631454110146, 32219, 31464, 23401, NaN
1473206495.128, 0.00621250830590725, -0.125380411744118, 0.163317635655403, 32223, 31460, 23404, NaN
1473206495.128, 0.00597768789157271, -0.125597730278969, 0.162952959537506, 32226, 31470, 23394, NaN
1473206496.136, 0.00585857918485999, -0.125892251729965, 0.16215518116951, 32214, 31455, 23408, NaN
1473206497.136, 0.00454931566491723, -0.127120226621628, 0.162262916564941, 32221, 31462, 23411, NaN
1473206498.136, 0.00460407603532076, -0.12642402946949, 0.162576571106911, 32218, 31458, 23397, NaN
1473206499.136, 0.00572010688483715, -0.125603869557381, 0.162290096282959, 32199, 31465, 23418, NaN
1473206500.136, 0.0050008469261229, -0.125301763415337, 0.162560507655144, 32206, 31481, 23407, NaN
1473206501.136, 0.00465395441278815, -0.125699564814568, 0.161700963973999, 32220, 31455, 23399, NaN
1473206502.136, 0.00454877782613039, -0.12594148516655, 0.161584824323654, 32220, 31452, 23409, NaN
1473206503.136, 0.00468496000394225, -0.125851944088936, 0.161627352237701, 32223, 31456, 23394, NaN
1473206504.136, 0.00461544468998909, -0.125591784715652, 0.161624535918236, 32216, 31466, 23401, NaN
1473206505.136, 0.00258202035911381, -0.12586373090744, 0.162243455648422, 32217, 31456, 23392, NaN
1473206506.144, 0.00336605310440063, -0.125668600201607, 0.161909490823746, 32222, 31458, 23408, NaN
1473206507.144, 0.000490954553242773, -0.126240640878677, 0.161841288208961, 32235, 31449, 23397, NaN
1473206508.144, -0.000659396464470774, -0.126335233449936, 0.161160692572594, 32213, 31458, 23396, NaN
1473206509.144, -0.00256774830631912, -0.126723870635033, 0.161209240555763, 32222, 31466, 23399, NaN
1473206510.144, -0.00477680517360568, -0.12657405436039, 0.161512643098831, 32203, 31459, 23408, NaN
1473206511.144, -0.00518820341676474, -0.126276403665543, 0.161436796188354, 32205, 31479, 23400, NaN
1473206512.144, -0.00822960305958986, -0.127151012420654, 0.161163613200188, 32211, 31463, 23406, -131.454437255859
1473206513.144, -0.0109573323279619, -0.127147525548935, 0.161219656467438, 32223, 31450, 23394, NaN
1473206514.144, -0.0107597298920155, -0.126945227384567, 0.160800069570541, 32228, 31453, 23402, NaN
1473206515.144, -0.013093794696033, -0.126242443919182, 0.160107135772705, 32209, 31455, 23417, NaN
1473206516.144, -0.016795938834548, -0.126663058996201, 0.159595176577568, 32230, 31446, 23399, NaN
1473206517.144, -0.0171423926949501, -0.126203283667564, 0.159678399562836, 32217, 31462, 23408, NaN
1473206518.152, -0.0176849905401468, -0.125675067305565, 0.159411549568176, 32214, 31459, 23409, NaN
1473206518.152, -0.0165904331952333, -0.125728875398636, 0.159381195902824, 32203, 31477, 23404, NaN
1473206519.16, -0.0153877791017294, -0.126199886202812, 0.15949085354805, 32214, 31475, 23410, NaN
1473206520.16, -0.012500905431807, -0.126353904604912, 0.159465223550797, 32213, 31460, 23417, NaN
1473206521.16, -0.00980266649276018, -0.127061396837234, 0.159782588481903, 32215, 31454, 23413, NaN
1473206522.16, -0.0076814740896225, -0.127685785293579, 0.160441234707832, 32209, 31467, 23412, NaN
1473206523.16, -0.0064265439286828, -0.127543538808823, 0.159760326147079, 32200, 31454, 23412, NaN
1473206524.16, -0.00248993118293583, -0.127858340740204, 0.160222798585892, 32212, 31452, 23400, NaN
1473206525.16, 0.000859016901813447, -0.127699956297874, 0.160140410065651, 32207, 31466, 23411, NaN
1473206526.16, 0.00452847126871347, -0.127374038100243, 0.16023950278759, 32217, 31461, 23399, NaN
1473206527.16, 0.00761505495756865, -0.127095878124237, 0.160115763545036, 32223, 31434, 23410, NaN
1473206528.16, 0.0103108212351799, -0.126935601234436, 0.160288542509079, 32209, 31461, 23422, NaN
1473206529.168, 0.0100507494062185, -0.126925483345985, 0.160881921648979, 32207, 31456, 23410, NaN
1473206530.168, 0.0104742730036378, -0.127206698060036, 0.161864757537842, 32222, 31458, 23412, NaN
1473206531.168, 0.00994141679257154, -0.127168163657188, 0.162661179900169, 32215, 31453, 23409, NaN
1473206532.168, 0.0115970773622394, -0.127499088644981, 0.162772297859192, 32221, 31455, 23405, NaN
1473206532.168, 0.011299816891551, -0.127445846796036, 0.162696123123169, 32200, 31455, 23412, NaN
1473206533.174, 0.0100746620446444, -0.127761662006378, 0.163039550185204, 32230, 31455, 23394, NaN
1473206534.174, 0.0103125339373946, -0.127940803766251, 0.163032710552216, 32209, 31464, 23417, NaN
1473206535.174, 0.00826813746243715, -0.128038436174393, 0.162994384765625, 32208, 31455, 23411, NaN
1473206536.174, 0.00761065119877458, -0.128153994679451, 0.163193762302399, 32205, 31459, 23399, NaN
1473206537.174, 0.00921019166707993, -0.12851357460022, 0.162629649043083, 32205, 31448, 23417, NaN
1473206538.174, 0.00976320169866085, -0.129219710826874, 0.162483692169189, 32207, 31471, 23403, NaN
1473206539.174, 0.0122421542182565, -0.128978043794632, 0.162615403532982, 32220, 31449, 23408, NaN
1473206540.182, 0.0116676930338144, -0.12842670083046, 0.162898018956184, 32214, 31462, 23397, NaN
1473206541.182, 0.0130617124959826, -0.128640785813332, 0.163507372140884, 32199, 31459, 23396, NaN
1473206541.182, 0.0126323774456978, -0.128522008657455, 0.163515612483025, 32216, 31468, 23403, NaN
1473206542.19, 0.00952283479273319, -0.127878412604332, 0.164012029767036, 32218, 31458, 23407, NaN
1473206543.19, 0.00766838435083628, -0.127669304609299, 0.163947314023972, 32202, 31469, 23404, NaN
1473206544.19, 0.0045084492303431, -0.12793156504631, 0.16398498415947, 32214, 31463, 23403, NaN
1473206545.19, 0.00258525484241545, -0.128013238310814, 0.163979813456535, 32196, 31458, 23411, NaN
1473206545.19, 0.00205554440617561, -0.127556532621384, 0.164242058992386, 32226, 31468, 23413, NaN
1473206546.192, 0.000520991568919271, -0.127410992980003, 0.164361357688904, 32209, 31457, 23400, NaN
1473206547.192, -0.000733739463612437, -0.12667016685009, 0.164825394749641, 32209, 31465, 23400, NaN
1473206548.192, -0.00173892523162067, -0.127284601330757, 0.164844423532486, 32192, 31456, 23414, NaN
1473206549.162, -0.00166919245384634, -0.128118202090263, 0.163677424192429, 32212, 31467, 23406, NaN
1473206549.162, -0.00101426162291318, -0.127954795956612, 0.1631148904562, 32213, 31474, 23407, NaN
1473206550.17, -0.00228066556155682, -0.128086671233177, 0.163130581378937, 32214, 31466, 23406, NaN
1473206551.17, -0.00339447055011988, -0.128028020262718, 0.16267953813076, 32207, 31455, 23411, NaN
1473206552.17, -0.00453315861523151, -0.128428399562836, 0.163145437836647, 32197, 31444, 23420, NaN
1473206553.17, -0.00500598410144448, -0.129417821764946, 0.163119435310364, 32204, 31461, 23404, NaN
1473206554.17, -0.00490091228857636, -0.130206227302551, 0.163117855787277, 32208, 31458, 23411, NaN
1473206555.17, -0.00554561521857977, -0.130426198244095, 0.163732126355171, 32208, 31464, 23409, NaN
1473206556.17, -0.00658258609473705, -0.130699157714844, 0.16448438167572, 32225, 31460, 23414, NaN
1473206557.17, -0.0063856216147542, -0.130780130624771, 0.164721384644508, 32210, 31455, 23415, NaN
1473206558.17, -0.00727781793102622, -0.130797550082207, 0.165585175156593, 32226, 31453, 23407, NaN
1473206559.17, -0.00796349067240953, -0.13038133084774, 0.1660186201334, 32212, 31461, 23408, NaN
1473206560.17, -0.00821653380990028, -0.130604282021523, 0.166193604469299, 32207, 31457, 23398, NaN
1473206561.178, -0.00693898554891348, -0.130663469433784, 0.165780901908875, 32210, 31458, 23416, NaN
1473206562.178, -0.00738310534507036, -0.130484908819199, 0.165772259235382, 32207, 31465, 23402, NaN
1473206563.178, -0.00734315114095807, -0.13094325363636, 0.165979161858559, 32222, 31452, 23406, NaN
1473206564.178, -0.00698966486379504, -0.131009712815285, 0.166103467345238, 32220, 31456, 23407, NaN
1473206565.178, -0.00705411843955517, -0.13091167807579, 0.167025208473206, 32218, 31468, 23406, NaN
1473206566.178, -0.0043017896823585, -0.131362348794937, 0.166894346475601, 32209, 31472, 23411, NaN
1473206567.178, -0.00359513983130455, -0.132041558623314, 0.166908264160156, 32208, 31459, 23402, -126.944038391113
1473206568.178, -0.00264352140948176, -0.131667360663414, 0.167367652058601, 32237, 31471, 23399, NaN
1473206569.178, 0.00140673865098506, -0.132303312420845, 0.166984170675278, 32219, 31458, 23401, NaN
1473206570.178, 0.0114704249426723, -0.132365211844444, 0.167197316884995, 32211, 31445, 23405, NaN
1473206571.178, 0.0274306274950504, -0.132420495152473, 0.167603865265846, 32199, 31447, 23403, NaN
1473206572.188, 0.0504169277846813, -0.132591903209686, 0.167485803365707, 32212, 31457, 23410, NaN
1473206572.188, 0.0784723907709122, -0.13373988866806, 0.167631089687347, 32223, 31443, 23395, NaN
1473206573.196, 0.109848514199257, -0.133645564317703, 0.167575150728226, 32230, 31454, 23402, NaN
1473206574.196, 0.143596202135086, -0.133976012468338, 0.16816021502018, 32223, 31463, 23395, NaN
1473206575.196, 0.148428708314896, -0.134169191122055, 0.167078480124474, 32203, 31464, 23399, NaN
1473206576.196, 0.0971751138567924, -0.133860811591148, 0.167070806026459, 32212, 31473, 23404, NaN
1473206577.196, 0.0535582304000854, -0.13390851020813, 0.167232736945152, 32217, 31463, 23413, NaN
1473206578.196, 0.0169655028730631, -0.133573025465012, 0.167499408125877, 32236, 31445, 23398, NaN
1473206579.196, -0.0132052060216665, -0.133068472146988, 0.167669609189034, 32193, 31472, 23403, NaN
1473206580.196, -0.0375429093837738, -0.133519381284714, 0.167256981134415, 32215, 31459, 23418, NaN
1473206581.196, -0.0566207133233547, -0.134070381522179, 0.166993215680122, 32211, 31456, 23417, NaN
1473206582.196, -0.0709930583834648, -0.134252220392227, 0.166366070508957, 32213, 31439, 23395, NaN
1473206583.204, -0.0811931490898132, -0.13503634929657, 0.165267303586006, 32209, 31464, 23413, NaN
1473206584.204, -0.0877305418252945, -0.134607061743736, 0.165082544088364, 32208, 31466, 23403, NaN
1473206585.204, -0.0910890623927116, -0.134695917367935, 0.164982289075851, 32212, 31452, 23405, NaN
1473206586.204, -0.0917250216007233, -0.134381517767906, 0.164427950978279, 32219, 31458, 23411, NaN
1473206586.204, -0.0900657549500465, -0.135246947407722, 0.163350686430931, 32219, 31463, 23386, NaN
1473206587.21, -0.08650853484869, -0.134714484214783, 0.162281051278114, 32216, 31451, 23414, NaN
1473206588.21, -0.0814198553562164, -0.135030508041382, 0.16205096244812, 32200, 31452, 23422, NaN
1473206589.21, -0.0751350298523903, -0.135401323437691, 0.162567287683487, 32222, 31458, 23396, NaN
1473206590.21, -0.0679581761360168, -0.135377883911133, 0.162827163934708, 32227, 31456, 23405, NaN
1473206591.21, -0.0601624846458435, -0.135407939553261, 0.162157893180847, 32215, 31457, 23395, NaN
1473206592.21, -0.0519907847046852, -0.135314851999283, 0.162356019020081, 32206, 31462, 23407, NaN
1473206593.21, -0.0436564050614834, -0.135127007961273, 0.162338584661484, 32204, 31463, 23417, NaN
1473206594.22, -0.0353442542254925, -0.134529322385788, 0.162239030003548, 32218, 31458, 23404, NaN
1473206595.22, -0.0272120870649815, -0.134464293718338, 0.161917939782143, 32224, 31472, 23406, NaN
1473206595.22, -0.019391966983676, -0.134827092289925, 0.162486538290977, 32212, 31459, 23407, NaN
1473206596.228, -0.0119918724521995, -0.135519877076149, 0.162848189473152, 32203, 31459, 23399, NaN
1473206597.228, -0.00509738270193338, -0.134761437773705, 0.16271910071373, 32217, 31465, 23418, NaN
1473206598.228, 0.00122653052676469, -0.135293111205101, 0.163344472646713, 32214, 31451, 23410, NaN
1473206599.228, 0.00693368259817362, -0.134327456355095, 0.162544891238213, 32221, 31464, 23413, NaN
1473206599.228, 0.0119948256760836, -0.134730517864227, 0.162180542945862, 32213, 31463, 23394, NaN
1473206600.232, 0.0163958072662354, -0.134026274085045, 0.162670612335205, 32192, 31460, 23403, NaN
1473206601.232, 0.0201357509940863, -0.134093254804611, 0.163091167807579, 32199, 31465, 23412, NaN
1473206602.232, 0.0232252888381481, -0.133774816989899, 0.162630438804626, 32211, 31474, 23401, NaN
1473206603.232, 0.0240924470126629, -0.133870244026184, 0.163684979081154, 32224, 31461, 23403, NaN
1473206603.232, 0.0212623346596956, -0.134561449289322, 0.163635164499283, 32196, 31473, 23423, NaN
1473206604.24, 0.0161367692053318, -0.134249061346054, 0.164386585354805, 32212, 31460, 23402, NaN
1473206605.24, 0.0137228146195412, -0.134227782487869, 0.163310497999191, 32209, 31450, 23410, NaN
1473206606.24, 0.00853914860635996, -0.134410604834557, 0.163291230797768, 32210, 31463, 23405, NaN
1473206607.24, 0.00265607726760209, -0.13476574420929, 0.16375695168972, 32218, 31461, 23400, NaN
1473206607.24, -0.000510595098603517, -0.133858799934387, 0.164133429527283, 32218, 31469, 23408, NaN
1473206608.244, -0.00618127733469009, -0.13340537250042, 0.164050415158272, 32189, 31466, 23415, NaN
1473206609.244, -0.00949008762836456, -0.134136363863945, 0.165329545736313, 32221, 31451, 23413, NaN
1473206610.244, -0.00965247210115194, -0.13420470058918, 0.165695652365685, 32220, 31458, 23419, NaN
1473206611.244, -0.0108482390642166, -0.134549051523209, 0.165827810764313, 32209, 31446, 23406, NaN
1473206612.244, -0.00893659237772226, -0.134499341249466, 0.165243431925774, 32209, 31446, 23402, NaN
1473206613.244, -0.00665787979960442, -0.134929731488228, 0.165243297815323, 32220, 31457, 23412, NaN
1473206614.254, -0.00314391031861305, -0.135750129818916, 0.165299773216248, 32219, 31459, 23400, NaN
1473206615.254, 0.00105492863804102, -0.135489076375961, 0.164959564805031, 32204, 31459, 23400, NaN
1473206616.254, 0.0070681506767869, -0.135881438851357, 0.165930837392807, 32207, 31451, 23406, NaN
1473206617.254, 0.0121933473274112, -0.135931119322777, 0.166182830929756, 32206, 31459, 23410, NaN
1473206618.254, 0.0159020479768515, -0.135942056775093, 0.166728749871254, 32223, 31462, 23407, NaN